Location: El Gallo
(32.4380°N, 116.9347°W)
Time: 19:04:58
(UTC+00:00)

USA 234 - Pass Details

Date: 01 October 2022
Orbit: 1099 x 1109 km, 123.0° (Epoch: 24 November)

Event Time Altitude Azimuth Distance (km) Brightness Sun altitude
Rises 12:02:22 0° 41° (NE) 3,917 7.0 -21.7°
Reaches altitude 10° 12:04:50 10° 42° (NE) 2,958 6.2 -21.2°
Maximum altitude 12:11:23 90° 335° (NNW) 1,105 3.2 -19.9°
Enters shadow 12:16:08 20° 223° (SW) 2,278 4.5 -18.9°
